Location: Buchberg
(46.9333°N, 15.8500°E)
Time: 09:25:20
(UTC+00:00)

Meteor 1-13 Rocket - Pass Details

Date: 14 July 2020
Orbit: 830 x 913 km, 81.3° (Epoch: 07 August)

Event Time Altitude Azimuth Distance (km) Brightness Sun altitude
Rises 01:05:33 0° 347° (NNW) 3,497 8.2 -16.0°
Reaches altitude 10° 01:08:01 10° 347° (NNW) 2,541 7.4 -15.8°
Maximum altitude 01:13:48 82° 261° (W) 877 4.2 -15.3°
Enters shadow 01:18:36 15° 175° (S) 2,162 5.9 -14.9°
